Location: Oshawa
(43.9000°N, 78.8670°W)
Time: 20:00:31
(UTC-05:00)

PAYLOAD A - Visible Passes

Search period start: 25 February 2017 00:00
Search period end: 07 March 2017 00:00
Orbit: 691 x 833 km, 98.2° (Epoch: 24 February)

Date Brightness Start Highest point End Pass type
(mag) Time Alt. Az. Time Alt. Az. Time Alt. Az.
25 Feb 5.6 05:33:11 10° NNE 05:37:32 35° E 05:41:56 10° SSE visible
25 Feb 7.1 18:29:31 10° SW 18:32:44 17° W 18:35:55 10° NW visible
26 Feb 6.9 04:56:46 10° NE 04:59:34 15° E 05:02:25 10° SE visible
27 Feb 4.5 05:56:34 10° NNE 06:01:16 60° E 06:06:05 10° S visible
28 Feb 6.2 05:19:26 10° NE 05:23:27 26° E 05:27:31 10° SSE visible
01 Mar 7.2 04:43:53 10° ENE 04:45:25 11° E 04:46:57 10° ESE visible
01 Mar 3.9 06:20:09 10° NNE 06:24:56 81° WNW 06:29:51 10° SSW visible
02 Mar 5.2 05:42:39 10° NNE 05:47:14 44° E 05:51:55 10° S visible
02 Mar 7.4 18:40:10 10° WSW 18:42:30 13° W 18:44:50 10° WNW visible
03 Mar 6.7 05:05:49 10° NE 05:09:20 20° E 05:12:54 10° SE visible
04 Mar 4.2 06:06:06 10° NNE 06:10:56 75° ESE 06:15:54 10° S visible
05 Mar 5.8 05:28:48 10° NNE 05:33:10 33° E 05:37:39 10° SSE visible
06 Mar 7.0 04:52:26 10° NE 04:55:13 15° E 04:58:01 10° SE visible
